Soldotna, AK

10:23 AM AKDT on October 20, 2017 (GMT -0800)
Soldotna

Weather History for PASX - May, 2013

Change the Weather History Date:

Thursday, May 16, 2013

  Actual Average Record
Temperature  
Mean Temperature 36 °F -  
Max Temperature 39 °F 52 °F 72 °F (1993)
Min Temperature 33 °F 35 °F 26 °F (1965)
Degree Days  
Heating Degree Days 29    
Moisture  
Dew Point 33 °F    
Average Humidity 85    
Maximum Humidity 93    
Minimum Humidity 70    
Precipitation  
Precipitation 0.05 in - - ()
Sea Level Pressure  
Sea Level Pressure 29.55 in    
Wind  
Wind Speed 4 mph (NNE)    
Max Wind Speed 10 mph    
Max Gust Speed 17 mph    
Visibility 10 miles    
Events      
Averages and records for this station are not official NWS values.
T = Trace of Precipitation, MM = Missing Value Source: NWS Daily Summary

Daily Weather History Graph

Daily Weather History Graph

Search for Another Location

Airport or City:

Trip Planner

Search our weather history database for the weather conditions in past years. The results will help you decide how hot, cold, wet, or windy it might be!

Date:

Astronomy

May. 16, 2013 Rise Set
Actual Time 5:19 AM AKDT 10:43 PM AKDT
Civil Twilight 4:12 AM AKDT 11:51 PM AKDT
Nautical Twilight 2:32 AM AKDT 1:28 AM AKDT
Astronomical Twilight Sun does not rise Sun does not rise
Moon 11:39 AM AKDT (5/16) 2:36 AM AKDT (5/16)
Length of Visible Light 19h 39m
Length of Day
17h 24m
Waxing Crescent, 37% of the Moon is Illuminated
May 16
Waxing Crescent
May 17
First Quarter
May 24
Full
May 31
Last Quarter
Jun 8
New

Hourly Weather History & Observations

Time (AKDT) Temp. Windchill Dew Point Humidity Pressure Visibility Wind Dir Wind Speed Gust Speed Precip Events Conditions
12:16 AM 37.4 °F - 30.2 °F 75% 29.71 in 10.0 mi Calm Calm - N/A   Overcast
12:36 AM 37.4 °F - 28.4 °F 70% 29.70 in 10.0 mi Calm Calm - N/A   Overcast
12:56 AM 37.4 °F - 28.4 °F 70% 29.70 in 10.0 mi Calm Calm - N/A   Overcast
1:16 AM 35.6 °F 32.8 °F 28.4 °F 75% 29.69 in 10.0 mi WNW 3.5 mph - N/A   Overcast
1:36 AM 35.6 °F - 28.4 °F 75% 29.68 in 10.0 mi Calm Calm - N/A   Overcast
1:56 AM 35.6 °F - 28.4 °F 75% 29.68 in 10.0 mi Calm Calm - N/A   Overcast
2:16 AM 35.6 °F - 28.4 °F 75% 29.68 in 10.0 mi Calm Calm - N/A   Overcast
2:36 AM 33.8 °F - 26.6 °F 75% 29.67 in 10.0 mi Calm Calm - N/A   Overcast
2:56 AM 33.8 °F 30.8 °F 28.4 °F 81% 29.67 in 10.0 mi West 3.5 mph - N/A   Overcast
3:16 AM 35.6 °F - 26.6 °F 70% 29.66 in 10.0 mi Calm Calm - N/A   Overcast
3:36 AM 35.6 °F 29.2 °F 28.4 °F 75% 29.66 in 10.0 mi East 8.1 mph - N/A   Mostly Cloudy
3:56 AM 37.4 °F 32.8 °F 28.4 °F 70% 29.66 in 10.0 mi East 5.8 mph - N/A   Overcast
4:16 AM 37.4 °F 33.8 °F 32.0 °F 81% 29.65 in 10.0 mi ENE 4.6 mph - N/A   Overcast
4:36 AM 37.4 °F 32.1 °F 32.0 °F 81% 29.65 in 10.0 mi ENE 6.9 mph - N/A   Overcast
4:56 AM 37.4 °F 32.1 °F 32.0 °F 81% 29.64 in 10.0 mi NE 6.9 mph - N/A   Overcast
5:16 AM 37.4 °F 33.8 °F 32.0 °F 81% 29.64 in 10.0 mi NNE 4.6 mph - N/A   Overcast
5:36 AM 37.4 °F 34.9 °F 32.0 °F 81% 29.63 in 10.0 mi NNE 3.5 mph - N/A   Overcast
5:56 AM 37.4 °F 32.8 °F 32.0 °F 81% 29.62 in 10.0 mi NNE 5.8 mph - N/A   Overcast
6:16 AM 37.4 °F 34.9 °F 32.0 °F 81% 29.62 in 10.0 mi NNE 3.5 mph - N/A   Overcast
6:36 AM 37.4 °F 32.8 °F 32.0 °F 81% 29.61 in 10.0 mi NNE 5.8 mph - N/A   Overcast
6:56 AM 35.6 °F 29.9 °F 32.0 °F 87% 29.61 in 10.0 mi North 6.9 mph - N/A   Overcast
7:16 AM 35.6 °F 30.7 °F 32.0 °F 87% 29.60 in 10.0 mi North 5.8 mph - N/A   Overcast
7:36 AM 35.6 °F 29.9 °F 32.0 °F 87% 29.60 in 10.0 mi NNE 6.9 mph - N/A   Overcast
7:56 AM 35.6 °F 29.2 °F 32.0 °F 87% 29.60 in 10.0 mi NNE 8.1 mph - N/A   Overcast
8:16 AM 35.6 °F 29.2 °F 32.0 °F 87% 29.59 in 10.0 mi NNE 8.1 mph - N/A   Overcast
8:36 AM 35.6 °F 28.6 °F 32.0 °F 87% 29.59 in 10.0 mi NNE 9.2 mph - N/A   Overcast
8:56 AM 35.6 °F 30.7 °F 32.0 °F 87% 29.58 in 10.0 mi NE 5.8 mph - N/A   Overcast
9:16 AM 35.6 °F - 32.0 °F 87% 29.58 in 10.0 mi North - - N/A   Mostly Cloudy
9:36 AM 35.6 °F 29.2 °F 33.8 °F 93% 29.57 in 10.0 mi NNE 8.1 mph - N/A   Mostly Cloudy
9:56 AM 35.6 °F 28.0 °F 32.0 °F 87% 29.57 in 10.0 mi NNE 10.4 mph - N/A   Mostly Cloudy
10:16 AM 35.6 °F 28.0 °F 32.0 °F 87% 29.56 in - NNE 10.4 mph 17.3 mph N/A   Overcast
10:36 AM 35.6 °F 28.6 °F 33.8 °F 93% 29.56 in 10.0 mi NNE 9.2 mph - N/A   Overcast
10:56 AM 35.6 °F 29.9 °F 32.0 °F 87% 29.55 in 10.0 mi NNE 6.9 mph - N/A   Overcast
11:16 AM 35.6 °F 29.9 °F 33.8 °F 93% 29.55 in 10.0 mi NNE 6.9 mph - N/A   Mostly Cloudy
11:36 AM 37.4 °F 31.4 °F 33.8 °F 87% 29.54 in 10.0 mi NNE 8.1 mph - N/A   Overcast
11:56 AM 37.4 °F 32.1 °F 33.8 °F 87% 29.54 in 10.0 mi NNE 6.9 mph - N/A   Overcast
12:16 PM 37.4 °F 34.9 °F 33.8 °F 87% 29.54 in 10.0 mi NNE 3.5 mph - N/A   Overcast
12:36 PM 37.4 °F 32.1 °F 33.8 °F 87% 29.53 in 10.0 mi NNE 6.9 mph - N/A   Overcast
12:56 PM 37.4 °F 32.1 °F 33.8 °F 87% 29.53 in 10.0 mi NNE 6.9 mph - N/A   Overcast
1:16 PM 37.4 °F 31.4 °F 33.8 °F 87% 29.52 in 10.0 mi NNE 8.1 mph - N/A   Overcast
1:36 PM 37.4 °F 32.1 °F 33.8 °F 87% 29.52 in 10.0 mi NNE 6.9 mph - N/A   Overcast
1:56 PM 37.4 °F 33.8 °F 33.8 °F 87% 29.51 in 10.0 mi NNE 4.6 mph - N/A   Overcast
2:16 PM 37.4 °F 32.8 °F 33.8 °F 87% 29.51 in 10.0 mi NNE 5.8 mph - N/A   Overcast
2:36 PM 39.2 °F 34.2 °F 35.6 °F 87% 29.51 in 10.0 mi NNW 6.9 mph - N/A   Overcast
2:56 PM 39.2 °F 34.2 °F 35.6 °F 87% 29.50 in 10.0 mi North 6.9 mph - N/A   Overcast
3:16 PM 39.2 °F 33.6 °F 35.6 °F 87% 29.50 in 10.0 mi North 8.1 mph - N/A   Overcast
3:36 PM 39.2 °F 35.9 °F 35.6 °F 87% 29.50 in 10.0 mi NNE 4.6 mph - N/A   Overcast
3:56 PM 39.2 °F 37.0 °F 35.6 °F 87% 29.50 in 10.0 mi NNW 3.5 mph - N/A   Overcast
4:16 PM 39.2 °F 35.0 °F 35.6 °F 87% 29.49 in 10.0 mi NNW 5.8 mph - N/A   Overcast
4:36 PM 39.2 °F 37.0 °F 35.6 °F 87% 29.49 in 10.0 mi NW 3.5 mph - N/A   Mostly Cloudy
4:56 PM 39.2 °F 37.0 °F 35.6 °F 87% 29.49 in 10.0 mi North 3.5 mph - N/A   Overcast
5:16 PM 39.2 °F 35.9 °F 35.6 °F 87% 29.49 in 10.0 mi North 4.6 mph - N/A   Overcast
5:36 PM 39.2 °F - 35.6 °F 87% 29.48 in 10.0 mi Calm Calm - N/A   Mostly Cloudy
5:56 PM 39.2 °F 37.0 °F 35.6 °F 87% 29.47 in 10.0 mi North 3.5 mph - N/A   Overcast
6:16 PM 39.2 °F 35.9 °F 35.6 °F 87% 29.47 in 10.0 mi NNW 4.6 mph - N/A   Overcast
6:36 PM 39.2 °F 35.0 °F 37.4 °F 93% 29.46 in 10.0 mi NNW 5.8 mph - N/A   Overcast
6:56 PM 39.2 °F 34.2 °F 35.6 °F 87% 29.45 in 10.0 mi NNW 6.9 mph - N/A   Overcast
7:16 PM 39.2 °F 35.9 °F 35.6 °F 87% 29.45 in 10.0 mi NNW 4.6 mph - N/A   Overcast
7:36 PM 39.2 °F 35.9 °F 35.6 °F 87% 29.45 in 10.0 mi North 4.6 mph - N/A   Overcast
7:56 PM 39.2 °F 35.0 °F 35.6 °F 87% 29.44 in 10.0 mi NNW 5.8 mph - N/A   Overcast
8:16 PM 39.2 °F 35.9 °F 35.6 °F 87% 29.44 in 10.0 mi NNW 4.6 mph - N/A   Overcast
8:36 PM 39.2 °F 35.9 °F 35.6 °F 87% 29.44 in 10.0 mi NW 4.6 mph - N/A   Overcast
8:56 PM 39.2 °F 35.9 °F 35.6 °F 87% 29.44 in 10.0 mi NW 4.6 mph - N/A   Overcast
9:16 PM 39.2 °F 35.0 °F 35.6 °F 87% 29.44 in 10.0 mi WNW 5.8 mph - N/A   Overcast
9:36 PM 39.2 °F - 35.6 °F 87% 29.45 in 10.0 mi Calm Calm - N/A   Overcast
9:56 PM 39.2 °F - 35.6 °F 87% 29.45 in 6.0 mi Calm Calm - N/A   Overcast
10:16 PM 37.4 °F - 35.6 °F 93% 29.45 in 8.0 mi Calm Calm - 0.01 in   Overcast
10:36 PM 37.4 °F - 35.6 °F 93% 29.44 in 6.0 mi Calm Calm - 0.02 in   Overcast
10:56 PM 37.4 °F 34.9 °F 35.6 °F 93% 29.44 in 5.0 mi ENE 3.5 mph - 0.03 in   Overcast
11:16 PM 37.4 °F - 35.6 °F 93% 29.44 in 10.0 mi Calm Calm - 0.01 in   Overcast
11:36 PM 37.4 °F 34.9 °F 35.6 °F 93% 29.43 in 8.0 mi East 3.5 mph - 0.02 in   Overcast
11:56 PM 37.4 °F 32.8 °F 35.6 °F 93% 29.43 in 7.0 mi East 5.8 mph - 0.02 in   Overcast